This is the latest recevied weather packets stored in our database for station/object KB1RMA-13. If no packets are shown the sender has not sent any weather packets the latest 10 day(s).
| Time | Temp. | Humidity | Pressure | Rain* | Wind** | Luminosity | Snow |
|---|---|---|---|---|---|---|---|
| 1778026419 | 21.11° C | 54% | 1006.4 hPa | 0 mm | - | 0 W/m² | - |
| 1778026116 | 21.11° C | 53% | 1006.7 hPa | 0 mm | - | 0 W/m² | - |
| 1778025814 | 21.67° C | 52% | 1006.2 hPa | 0 mm | - | 0 W/m² | - |
| 1778025510 | 21.67° C | 52% | 1006.4 hPa | 0 mm | - | 1 W/m² | - |
| 1778025208 | 21.67° C | 52% | 1006.2 hPa | 0 mm | - | 1 W/m² | - |
| 1778024904 | 21.67° C | 51% | 1006 hPa | 0 mm | - | 3 W/m² | - |
| 1778024603 | 22.22° C | 51% | 1006.4 hPa | 0 mm | - | 4 W/m² | - |
| 1778024299 | 22.22° C | 51% | 1006 hPa | 0 mm | - | 7 W/m² | - |
| 1778023997 | 22.22° C | 50% | 1006.2 hPa | 0 mm | - | 11 W/m² | - |
| 1778023694 | 22.78° C | 50% | 1006 hPa | 0 mm | - | 14 W/m² | - |
| 1778023392 | 22.78° C | 50% | 1006 hPa | 0 mm | - | 19 W/m² | - |
| 1778023088 | 22.78° C | 49% | 1005.7 hPa | 0 mm | - | 24 W/m² | - |
| 1778022787 | 22.78° C | 50% | 1005.8 hPa | 0 mm | - | 29 W/m² | - |
| 1778022484 | 22.78° C | 49% | 1005.7 hPa | 0 mm | - | 39 W/m² | - |
| 1778022181 | 23.33° C | 49% | 1005.7 hPa | 0 mm | - | 45 W/m² | - |
| 1778021878 | 23.33° C | 49% | 1005.5 hPa | 0 mm | - | 60 W/m² | - |
| 1778021575 | 23.33° C | 48% | 1005.6 hPa | 0 mm | - | 71 W/m² | - |
| 1778021269 | 23.89° C | 48% | 1005.4 hPa | 0 mm | - | 81 W/m² | - |
| 1778020968 | 23.89° C | 47% | 1005.1 hPa | 0 mm | - | 93 W/m² | - |
| 1778020665 | 23.89° C | 47% | 1005.2 hPa | 0 mm | - | 102 W/m² | - |
| 1778020361 | 23.33° C | 49% | 1005 hPa | 0 mm | - | 107 W/m² | - |
| 1778020057 | 23.33° C | 50% | 1004.8 hPa | 0 mm | - | 115 W/m² | - |
| 1778019753 | 23.33° C | 49% | 1004.9 hPa | 0 mm | - | 108 W/m² | - |
| 1778019451 | 23.33° C | 49% | 1004.9 hPa | 0 mm | - | 110 W/m² | - |
| 1778019147 | 23.33° C | 49% | 1004.7 hPa | 0 mm | - | 113 W/m² | - |
* Rain latest hour (hover to see other rain measurements)
** Current wind speed in m/s (hover to see current wind gust speed)